GW3759 Weather Reports


time (UTC)temp
C
wind
direction
speed
KPH
gust
KPH
rain 1hr
cm
rain 24hr
cm
rain mn
cm
humidity
%
barometer
mb
20260504174504 21 124 14.5 27.4 0.00 0.00 0.00 35 1012.5
20260504173004 21 147 8.0 29.0 0.00 0.00 0.00 37 1012.7
20260504171513 20 173 11.3 24.1 0.00 0.00 0.00 36 1012.9
20260504081511 10 161 0.0 0.0 0.00 0.00 0.00 63 1015.6
20260504050003 10 156 0.0 3.2 0.00 0.00 0.00 63 1015.7
20260504044502 9 235 0.0 3.2 0.00 0.00 0.00 65 1015.6
20260504043004 9 304 0.0 1.6 0.00 0.00 0.00 68 1015.5
20260504041504 8 304 0.0 0.0 0.00 0.00 0.00 69 1015.4
20260504040004 8 304 0.0 0.0 0.00 0.00 0.00 69 1015.5
20260504034505 8 304 0.0 0.0 0.00 0.00 0.00 70 1015.6
20260504033007 8 304 0.0 1.6 0.00 0.00 0.00 72 1015.4
20260504031506 7 304 0.0 1.6 0.00 0.00 0.00 70 1015.5
20260504030007 8 304 0.0 3.2 0.00 0.00 0.00 69 1015.6
20260504024533 8 304 0.0 1.6 0.00 0.00 0.00 67 1015.5
20260504023003 8 304 0.0 3.2 0.00 0.00 0.00 66 1015.5
20260504021503 8 304 0.0 3.2 0.00 0.00 0.00 64 1015.6
20260504020004 9 304 0.0 3.2 0.00 0.00 0.00 63 1015.4
20260504014503 10 304 0.0 3.2 0.00 0.00 0.00 64 1015.2
20260504013016 10 304 0.0 1.6 0.00 0.00 0.00 64 1015.3
20260504011512 10 304 0.0 1.6 0.00 0.00 0.00 63 1015.1
20260504010003 11 304 0.0 3.2 0.00 0.00 0.00 59 1015.1
20260504004508 11 304 0.0 3.2 0.00 0.00 0.00 59 1015.0
20260504003005 12 304 0.0 1.6 0.00 0.00 0.00 53 1014.9
20260504001502 13 304 0.0 0.0 0.00 0.00 0.00 50 1014.8
20260504000024 14 304 0.0 0.0 0.00 0.00 0.00 44 1014.7
20260503234505 15 304 0.0 3.2 0.00 0.00 0.00 40 1014.4
20260503233011 16 282 0.0 3.2 0.00 0.00 0.00 36 1014.3
20260503231510 16 360 0.0 4.8 0.00 0.00 0.00 31 1014.2
20260503230006 16 14 1.6 11.3 0.00 0.00 0.00 28 1014.1
20260503224502 17 48 1.6 16.1 0.00 0.00 0.00 31 1014.2
20260503223013 17 113 3.2 11.3 0.00 0.00 0.00 33 1014.3
20260503221513 17 350 0.0 8.0 0.00 0.00 0.00 31 1014.4
20260503220016 17 229 1.6 12.9 0.00 0.00 0.00 30 1014.5
20260503214512 16 38 3.2 11.3 0.00 0.00 0.00 29 1014.6
20260503213008 16 190 9.7 29.0 0.00 0.00 0.00 33 1014.5
20260503211506 16 159 8.0 14.5 0.00 0.00 0.00 30 1014.7
20260503210017 16 176 9.7 27.4 0.00 0.00 0.00 33 1014.6
20260503204520 16 192 6.4 17.7 0.00 0.00 0.00 34 1014.7
20260503203022 15 163 8.0 20.9 0.00 0.00 0.00 32 1015.0
20260503201508 15 88 4.8 16.1 0.00 0.00 0.00 35 1015.2
20260503200012 15 150 8.0 19.3 0.00 0.00 0.00 36 1015.4
20260503194511 15 135 3.2 12.9 0.00 0.00 0.00 33 1015.5
20260503193035 15 176 11.3 27.4 0.00 0.00 0.00 35 1015.8
20260503191522 15 74 1.6 17.7 0.00 0.00 0.00 35 1016.0
20260503190022 14 138 3.2 20.9 0.00 0.00 0.00 35 1016.2
20260503184517 13 182 8.0 20.9 0.00 0.00 0.00 36 1016.3
20260503183013 13 116 12.9 20.9 0.00 0.00 0.00 41 1016.6
20260503181513 13 144 9.7 20.9 0.00 0.00 0.00 35 1016.6
20260503180026 13 5 8.0 19.3 0.00 0.00 0.00 36 1016.7